Flag for Bosnia-Herzegovina Weather past 2 weeks in Sarajevo, Bosnia-Herzegovina

32 °F

Ice fog.

Feels Like: 32 °F
Forecast: 16 / 38 °F
Wind: 1 mph from North

Location: Sarajevo / Butmir

Current Time: Nov 29, 2015 at 5:27:23 AM

Latest Report: Nov 29, 2015 at 4:00 AM

Visibility: 2 mi

Pressure: 30.18 "Hg (28.26 "Hg at 526m altitude)

Humidity: 100%

Dew point: 32 °F

Location of SarajevoLocation

Historic Weather in Sarajevo — Graph


Sarajevo temperature yesterday

Maximum temperature yesterday: 37 °F (at 2:30 PM)
Minimum temperature yesterday: 30 °F (at 1:00 AM)
Average temperature yesterday: 33 °F

Past Weeks' High & Low Weather Summary

High66 °F (Nov 16, 2:00 PM)100% (Nov 14, 4:00 AM)30.39 "Hg (Nov 14, 4:00 AM)
Low28 °F (Nov 18, 7:00 AM)39% (Nov 17, 1:30 PM)29.24 "Hg (Nov 21, 2:30 PM)
Average39 °F89%29.97 "Hg
* Reported Nov 14 4:00 AM — Nov 29 4:00 AM, Sarajevo, Weather by CustomWeather, © 2015

Note: Actual official high and low records may vary slightly from our data, if they occured in-between our weather recording intervals... More about our weather records


Sarajevo weather history for previous 24 hours

Time TempWeatherWind HumidityBarometerVisibility
4:00 AM
Sun, Nov 29
32 °FIce fog.1 mph100%30.18 "Hg1 mi
3:00 AM30 °FIce fog.1 mph100%30.15 "Hg1 mi
2:00 AM30 °FIce fog.3 mph100%30.15 "Hg1 mi
1:00 AM28 °FLight fog.2 mph100%30.12 "Hg1 mi
12:00 AM30 °FPassing clouds.2 mph100%30.12 "Hg1 mi
11:00 PM
Sat, Nov 28
32 °FIce fog.1 mph100%30.09 "Hg1 mi
10:00 PM34 °FFog.No wind93%30.07 "Hg2 mi
9:30 PM32 °FIce fog.1 mph100%30.07 "Hg2 mi
9:00 PM34 °FFog.1 mph93%30.04 "Hg2 mi
8:30 PM34 °FFog.1 mph100%30.04 "Hg2 mi
8:00 PM34 °FFog.2 mph100%30.01 "Hg2 mi
7:30 PM34 °FFog.1 mph93%30.01 "Hg2 mi
7:00 PM34 °FFog.No wind93%29.98 "Hg2 mi
6:30 PM34 °FFog.1 mph93%29.98 "Hg2 mi
6:00 PM34 °FFog.1 mph93%29.98 "Hg2 mi
5:30 PM34 °FFog.No wind93%29.98 "Hg2 mi
5:00 PM34 °FFog.No wind93%29.95 "Hg3 mi
4:30 PM34 °FFog.2 mph87%29.92 "Hg3 mi
4:00 PM36 °FPartly sunny.1 mph81%29.92 "Hg4 mi
3:30 PM36 °FPartly sunny.No wind81%29.92 "Hg4 mi
3:00 PM36 °FPartly sunny.1 mph81%29.89 "Hg4 mi
2:30 PM37 °FPartly sunny.1 mph75%29.89 "Hg4 mi
2:00 PM36 °FPartly sunny.2 mph81%29.89 "Hg4 mi
1:30 PM36 °FFog.2 mph87%29.89 "Hg3 mi
1:00 PM36 °FFog.2 mph87%29.86 "Hg2 mi
12:30 PM34 °FFog.2 mph93%29.89 "Hg2 mi
12:00 PM34 °FFog.1 mph93%29.89 "Hg1 mi
11:30 AM36 °FLight snow. Fog.1 mph87%29.86 "Hg1 mi
11:00 AM34 °FLight snow. Fog.1 mph87%29.86 "Hg1 mi
10:30 AM34 °FLight snow. Fog.No wind93%29.86 "Hg1 mi
10:00 AM32 °FSnow. Ice fog.No wind100%29.86 "Hg1 mi
9:30 AM34 °FSnow. Fog.No wind100%29.86 "Hg1 mi
9:00 AM34 °FSnow. Fog.No wind93%29.83 "Hg1 mi
7:30 AM30 °FLight snow. Ice fog.1 mph100%29.83 "Hg2 mi
7:00 AM30 °FLight snow. Ice fog.1 mph100%29.83 "Hg2 mi
6:30 AM30 °FLight snow. Ice fog.No wind100%29.80 "Hg2 mi
6:00 AM30 °FLight snow. Ice fog.No wind100%29.80 "Hg2 mi
5:30 AM30 °FSnow. Ice fog.No wind100%29.80 "Hg1 mi
5:00 AM30 °FSnow. Ice fog.1 mph100%29.80 "Hg2 mi
Weather by CustomWeather, © 2015

See weather overviewHow to use our weather pages